[[{"header":{"parameterUnit":"m.s-1","parameterCategory":1,"la1":30.2991,"la2":30.254,"lo1":-89.0895,"lo2":-89.0444,"dy":0.0017,"dx":0.0017,"nx":28,"ny":28,"refTime":"2025-04-14T03:00:00:Z","depth":0,"parameterNumber":2,"parameterNumberName":"U-component_of_WINDS"},"data":[0,0,0,0,0,0,0,0,0,0,0,0,0,0,0,0,0,0,0,0,0,0,0,0,0,0,0,0,0,0,0,0,0,0,0,0,0,0,0,0,0,0,0,0,0,0,0,0,0,0,0,0,0,0,0,0,0,0,3.4734,3.4736,0,3.4914,3.4916,3.4918,3.4905,3.4902,3.4899,3.4897,3.5082,3.5089,3.5096,0,0,0,0,0,0,0,0,0,0,0,0,0,3.4375,3.4382,3.4734,3.4736,3.4738,3.4914,3.4916,3.4919,3.4905,3.4902,3.4898,3.4895,3.5079,3.5088,3.5097,0,0,0,0,0,0,0,0,0,0,0,0,0,3.4541,3.4384,3.4733,3.4752,3.4756,3.4913,3.4916,3.492,3.4906,3.4902,3.4898,3.4894,3.5076,3.5087,3.5098,3.5248,0,0,3.5132,3.5137,0,0,0,0,0,0,0,0,3.4532,3.4554,3.4747,3.4751,3.4756,3.4883,3.4858,3.503,3.4907,3.4849,3.4896,3.4892,3.5019,3.5034,3.5077,3.5257,3.5265,3.5133,3.514,3.5145,3.5148,0,0,0,0,0,0,0,3.452,3.4546,3.4805,3.475,3.4755,3.4751,3.4771,3.489,3.4954,3.4854,3.4853,3.4875,3.502,3.5066,3.5081,3.5268,3.5133,3.5143,3.515,3.5154,3.5576,3.558,0,0,0,0,0,0,3.4504,3.4537,3.4799,3.481,3.4631,3.4761,3.4783,3.4846,3.4953,3.4965,3.4878,3.4873,3.5049,3.5068,3.5088,3.5267,3.5145,3.5155,3.5162,3.5571,3.5577,3.5582,0,0,0,0,0,0,3.4497,3.4528,3.4792,3.4674,3.4707,3.4772,3.4843,3.4852,3.4898,3.4971,3.4983,3.4913,3.5047,3.5072,3.5208,3.5274,3.516,3.517,3.5566,3.5573,3.5579,3.563,0,0,0,0,0,0,3.4487,3.4525,3.4583,3.4675,3.4713,3.4909,3.4847,3.4858,3.4917,3.4913,3.5008,3.5019,3.5046,3.5191,3.5219,3.5287,3.5179,3.556,3.5569,3.5577,3.5623,3.5638,3.565,0,0,0,0,0,3.4474,3.4591,3.4586,3.4618,3.4787,3.4913,3.4935,3.4963,3.4923,3.4981,3.5028,3.5016,3.5263,3.5205,3.5236,3.5309,3.5556,3.5567,3.5576,3.5616,3.5635,3.565,0,0,0,0,0,0,3.4506,3.4604,3.4599,3.475,3.4823,3.4911,3.4985,3.4982,3.5068,3.506,3.5091,3.5113,3.5248,3.5293,3.5227,3.5458,3.5404,3.5421,3.5424,3.5442,3.5455,3.544,3.5188,0,0,0,0,0,3.4531,3.4625,3.4706,3.4831,3.4868,3.492,3.4976,3.4991,3.5068,3.5099,3.5156,3.5231,3.5325,3.5386,3.5477,3.563,3.5648,3.5695,3.5709,3.572,3.5733,3.5814,3.5834,3.5615,3.5615,3.5615,0,0,3.4583,3.4648,3.4706,3.4839,3.4897,3.4993,3.4946,3.5051,3.5121,3.5115,3.5245,3.529,3.5376,3.5519,3.5585,3.556,3.5798,3.5733,3.5741,3.5749,3.5826,3.5847,3.5865,3.5622,3.5621,3.5619,0,0,3.4726,3.4786,3.4895,3.4954,3.5043,3.5077,3.5103,3.5191,3.522,3.5351,3.5347,3.5432,3.5595,3.5655,3.5707,3.5871,3.5862,3.59,3.5971,3.6049,3.6066,3.6082,3.6137,3.6157,3.5913,3.5913,3.5913,0,3.4779,3.4924,3.4952,3.5056,3.5113,3.5112,3.5221,3.5278,3.5392,3.5431,3.5402,3.5603,3.5661,3.5817,3.5856,3.59,3.5929,3.5888,3.6062,3.6078,3.6092,3.6145,3.6166,3.5917,3.5917,3.5916,3.5916,0,3.4983,3.5083,3.5161,3.5269,3.5336,3.5443,3.5486,3.555,3.5559,3.5595,3.5728,3.5797,3.59,3.5939,3.595,3.6096,3.6077,3.6055,3.6001,3.6116,3.6166,3.6187,3.5922,3.5921,3.592,3.5919,0,0,3.515,3.5272,3.53,3.5348,3.5445,3.5523,3.5629,3.5729,3.5782,3.5861,3.5949,3.6085,3.6064,3.6123,3.614,3.6209,3.633,3.6178,3.618,3.6201,3.6492,3.6506,3.6529,3.6326,3.6331,3.6334,3.6483,0,3.53,3.5487,3.5515,3.5679,3.577,3.5769,3.5861,3.593,3.5967,3.605,3.6091,3.6185,3.6152,3.6187,3.6256,3.6301,3.6389,3.6291,3.6406,3.641,3.6381,3.6556,3.6571,3.6709,3.6503,3.6507,3.6509,0,3.55,3.5582,3.5755,3.5838,3.5877,3.5959,3.6052,3.6131,3.6209,3.6231,3.6296,3.6304,3.6412,3.6355,3.6503,3.6436,3.6485,3.6515,3.6521,3.653,3.6464,3.6566,3.6754,3.6773,3.6541,3.6539,3.6536,0,3.56,3.5755,3.5877,3.5919,3.6019,3.6076,3.6121,3.6195,3.6252,3.6334,3.6371,3.6465,3.6515,3.6586,3.6619,3.6575,3.6764,3.6711,3.6783,3.6782,3.682,3.6817,3.7015,3.6858,3.6857,3.6857,3.6857,0,3.5762,3.5867,3.5923,3.5998,3.6115,3.6146,3.6261,3.6303,3.6369,3.6451,3.6458,3.6535,3.6575,3.6658,3.6684,3.6801,3.6825,3.6844,3.6849,3.6841,3.6838,3.6871,3.6861,3.6862,3.6861,3.686,3.6859,0,3.5893,3.5935,3.6068,3.6151,3.6175,3.6257,3.6328,3.64,3.6436,3.654,3.6567,3.6624,3.6721,3.6762,3.6882,3.69,3.7032,3.7032,3.7005,3.7006,3.7075,3.7066,3.7299,3.7329,3.7155,3.7156,3.7158,0,3.5992,3.6072,3.6164,3.6219,3.6265,3.6355,3.6413,3.6447,3.6507,3.66,3.6661,3.6758,3.6838,3.6993,3.7045,3.7136,3.7136,3.7211,3.715,3.7138,3.7133,3.7126,3.7133,3.7221,3.7223,3.7225,3.7226,0,3.6162,3.6179,3.6263,3.6354,3.6423,3.6497,3.6568,3.6613,3.6657,3.6725,3.6824,3.6886,3.7007,3.7103,3.7197,3.7242,3.724,3.7245,3.7266,3.7257,3.7237,3.7245,3.7032,3.7239,3.7237,3.7237,3.7236,3.7235,3.6278,3.6348,3.6422,3.6515,3.6572,3.6639,3.6709,3.6754,3.6838,3.6939,3.6954,3.7059,3.7133,3.7259,3.7307,3.7389,3.737,3.7401,3.7409,3.7415,3.7417,3.7226,3.7407,3.7407,3.7407,3.7406,3.7406,0,3.6445,3.6493,3.6578,3.6677,3.6749,3.6743,3.6821,3.6882,3.6974,3.7043,3.7121,3.7233,3.7326,3.7385,3.7477,3.7532,3.7533,3.7554,3.7549,3.7559,3.7431,3.7402,3.7551,3.7551,3.7551,3.7551,3.7551,3.7551,3.654,3.6657,3.6683,3.6827,3.6875,3.6977,3.7022,3.7083,3.7137,3.7263,3.7339,3.7377,3.7441,3.7538,3.7622,3.7637,3.7669,3.7691,3.7704,3.7583,3.7568,3.7554,3.7526,3.7699,3.7699,3.7824,3.7825,3.7826]},{"header":{"parameterUnit":"m.s-1","parameterCategory":1,"la1":30.2991,"la2":30.254,"lo1":-89.0895,"lo2":-89.0444,"dy":0.0017,"dx":0.0017,"nx":28,"ny":28,"refTime":"2025-04-14T03:00:00:Z","depth":0,"parameterNumber":3,"parameterNumberName":"V-component_of_WINDS"},"data":[0,0,0,0,0,0,0,0,0,0,0,0,0,0,0,0,0,0,0,0,0,0,0,0,0,0,0,0,0,0,0,0,0,0,0,0,0,0,0,0,0,0,0,0,0,0,0,0,0,0,0,0,0,0,0,0,0,0,2.9111,2.9112,0,2.9202,2.9203,2.9204,2.9178,2.9176,2.9174,2.9172,2.9263,2.9267,2.9271,0,0,0,0,0,0,0,0,0,0,0,0,0,2.891,2.8914,2.9111,2.9112,2.9113,2.9202,2.9203,2.9204,2.9178,2.9176,2.9174,2.9171,2.9262,2.9267,2.9272,0,0,0,0,0,0,0,0,0,0,0,0,0,2.8999,2.8915,2.911,2.9111,2.9112,2.9202,2.9203,2.9205,2.9179,2.9176,2.9173,2.917,2.926,2.9266,2.9272,2.9367,0,0,2.9291,2.9294,0,0,0,0,0,0,0,0,2.8994,2.9006,2.9109,2.9111,2.9112,2.9176,2.9166,2.9259,2.9179,2.9153,2.9172,2.9169,2.9236,2.9244,2.9267,2.9371,2.9375,2.9292,2.9296,2.9298,2.93,0,0,0,0,0,0,0,2.8988,2.9002,2.9147,2.9111,2.9113,2.9105,2.9114,2.9183,2.9209,2.9155,2.9153,2.9165,2.9236,2.9261,2.9269,2.9376,2.9292,2.9297,2.9301,2.9304,2.9561,2.9563,0,0,0,0,0,0,2.8981,2.8997,2.9144,2.9149,2.9045,2.9111,2.9122,2.9158,2.9208,2.9213,2.9167,2.9163,2.9252,2.9262,2.9272,2.9385,2.9298,2.9304,2.9308,2.9558,2.9561,2.9565,0,0,0,0,0,0,2.8977,2.8994,2.914,2.9073,2.9091,2.9117,2.9159,2.9161,2.9187,2.9217,2.9222,2.9188,2.925,2.9264,2.9343,2.9388,2.9307,2.9313,2.9554,2.9559,2.9563,2.9613,0,0,0,0,0,0,2.8971,2.8993,2.903,2.9074,2.9095,2.9211,2.9161,2.9165,2.9198,2.9193,2.9238,2.9243,2.9249,2.9334,2.935,2.9395,2.9318,2.955,2.9556,2.9561,2.9607,2.9619,2.9628,0,0,0,0,0,2.8964,2.904,2.9032,2.905,2.9142,2.9214,2.9225,2.9232,2.9201,2.9238,2.9258,2.9242,2.9381,2.9343,2.936,2.9408,2.9547,2.9554,2.9561,2.9603,2.9616,2.9628,0,0,0,0,0,0,2.9001,2.9046,2.9038,2.9131,2.9169,2.9209,2.9256,2.9246,2.9293,2.9287,2.9292,2.9302,2.9383,2.9404,2.936,2.9501,2.9459,2.947,2.9485,2.9499,2.9509,2.9502,2.9323,0,0,0,0,0,2.902,2.9075,2.9112,2.919,2.921,2.923,2.9261,2.9263,2.9302,2.9317,2.9343,2.938,2.9432,2.9467,2.9516,2.961,2.9619,2.9652,2.9662,2.967,2.9679,2.9729,2.9744,2.9587,2.9587,2.9587,0,0,2.9059,2.9091,2.9126,2.9198,2.9228,2.9284,2.9243,2.9305,2.9346,2.9326,2.9403,2.9423,2.9465,2.9552,2.9592,2.9572,2.9724,2.9679,2.9686,2.969,2.9738,2.9752,2.9765,2.9592,2.9591,2.959,0,0,2.916,2.919,2.9258,2.9289,2.9334,2.9347,2.9363,2.9405,2.9418,2.9495,2.9481,2.953,2.962,2.965,2.9677,2.9788,2.9774,2.9804,2.9858,2.9907,2.9919,2.993,2.9968,2.9982,2.9813,2.9813,2.9813,0,2.9203,2.9288,2.9294,2.9357,2.9388,2.9374,2.9442,2.9471,2.953,2.9551,2.9528,2.964,2.9667,2.976,2.9787,2.981,2.9828,2.9799,2.9917,2.9928,2.9938,2.9975,2.9989,2.9816,2.9816,2.9815,2.9815,0,2.9339,2.9398,2.9447,2.9505,2.9542,2.9607,2.9622,2.9658,2.9656,2.9671,2.9749,2.9781,2.9836,2.9859,2.9857,2.9951,2.9937,2.9916,2.9873,2.9956,2.9991,3.0005,2.9821,2.982,2.9819,2.9818,0,0,2.9465,2.9525,2.9543,2.9569,2.9617,2.9662,2.9726,2.9781,2.9811,2.9852,2.9905,2.9981,2.9961,2.9991,2.9993,3.0035,3.0119,3.0008,3.0009,3.0027,3.0223,3.0239,3.0255,3.0111,3.0113,3.0116,3.022,0,2.9569,2.9683,2.9689,2.9791,2.9845,2.9831,2.9886,2.9921,2.9936,2.9983,2.9999,3.0052,3.0023,3.0041,3.0082,3.0101,3.0159,3.0093,3.0158,3.0161,3.0148,3.0274,3.0291,3.0387,3.0233,3.0235,3.0237,0,2.9706,2.9752,2.9859,2.9899,2.9922,2.9972,3.0022,3.0067,3.0106,3.0113,3.0147,3.0143,3.0206,3.0162,3.0249,3.0204,3.0231,3.0243,3.0247,3.0253,3.0204,3.0282,3.0418,3.0432,3.0259,3.0257,3.0255,0,2.9787,2.9875,2.995,2.9972,3.0021,3.0056,3.0078,3.0114,3.0146,3.0189,3.0209,3.0259,3.0287,3.0325,3.0333,3.03,3.0419,3.0376,3.0426,3.0426,3.0451,3.0449,3.0593,3.047,3.047,3.0469,3.0469,0,2.9902,2.9968,2.9987,3.0033,3.0106,3.0112,3.0184,3.0203,3.0235,3.0283,3.0274,3.032,3.0328,3.0375,3.0382,3.0452,3.0464,3.0471,3.0472,3.0472,3.0471,3.0489,3.0482,3.0473,3.0472,3.0472,3.0471,0,3.0004,3.0019,3.01,3.014,3.0151,3.0203,3.0236,3.0279,3.0293,3.0355,3.0369,3.0391,3.0445,3.0457,3.0522,3.0526,3.0609,3.0603,3.0596,3.0595,3.0644,3.0639,3.0804,3.0826,3.0689,3.0691,3.0692,0,3.0076,3.0127,3.0171,3.0204,3.0227,3.0279,3.0312,3.032,3.0354,3.0401,3.0439,3.0492,3.0536,3.0623,3.0644,3.0693,3.0688,3.0742,3.0695,3.0693,3.0687,3.0684,3.0688,3.0751,3.0752,3.0754,3.0754,0,3.0202,3.0207,3.0255,3.0306,3.0346,3.0386,3.0424,3.045,3.0463,3.0501,3.0558,3.0591,3.0657,3.071,3.0759,3.078,3.0769,3.0769,3.0783,3.0783,3.0776,3.078,3.062,3.0765,3.0764,3.0763,3.0763,3.0762,3.0291,3.0335,3.0373,3.0426,3.0456,3.0491,3.0534,3.0553,3.06,3.0655,3.0657,3.0718,3.0753,3.0818,3.0841,3.0888,3.0871,3.0892,3.0897,3.0901,3.0905,3.077,3.0897,3.0897,3.0896,3.0896,3.0896,0,3.0416,3.0439,3.0489,3.0542,3.0584,3.0571,3.0612,3.0648,3.0702,3.0737,3.0779,3.0843,3.0894,3.0918,3.0968,3.1001,3.0997,3.1014,3.1011,3.1015,3.0918,3.0901,3.1016,3.1016,3.1016,3.1016,3.1016,3.1016,3.0486,3.0559,3.0568,3.0655,3.0678,3.0738,3.0763,3.0795,3.0822,3.0894,3.0937,3.0953,3.0983,3.1034,3.108,3.1086,3.1104,3.1123,3.1126,3.1035,3.1023,3.1011,3.0994,3.1127,3.1127,3.1219,3.122,3.1221]}]]